Le nostre stazioni meteo in Italia

Pubblicità
Il mio iltempo24.it
Ustica, Italia (16400): Temperatura & dewpoint: 14.08.2017 05:00:00 - 20.08.2017 05:00:00 (CEST)Ustica, Italia (16400): velocità del vento: 14.08.2017 05:00:00 - 20.08.2017 05:00:00 (CEST)Ustica, Italia (16400): direzione del vento: 14.08.2017 05:00:00 - 20.08.2017 05:00:00 (CEST)Ustica, Italia (16400): reduced air pressure: 14.08.2017 05:00:00 - 20.08.2017 05:00:00 (CEST)Ustica, Italia (16400): visibility: 14.08.2017 05:00:00 - 20.08.2017 05:00:00 (CEST)Ustica, Italia (16400): ore di luce: 14.08.2017 05:00:00 - 20.08.2017 05:00:00 (CEST)
Data & Tempo tt [°C] td [°C] ff [km/h] ff [kn] dd ppp [hPa] vv [km] sd [min]
20.08.2017 05:00:00 - - - - - - - -
20.08.2017 04:00:00 - - - - - - - -
20.08.2017 03:00:00 - - - - - - - -
20.08.2017 02:00:00 - - - - - - - -
20.08.2017 01:00:00 - - - - - - - -
20.08.2017 00:00:00 - - - - - - - -
19.08.2017 23:00:00 - - - - - - - -
19.08.2017 22:00:00 - - - - - - - -
19.08.2017 21:00:00 - - - - - - - -
19.08.2017 20:00:00 26,0 19,4 0 0 N 1016,5 25 48
19.08.2017 19:00:00 25,0 18,6 0 0 N 1016,6 25 60
19.08.2017 18:00:00 25,8 18,6 0 0 N 1016,8 25 60
19.08.2017 17:00:00 26,0 18,8 0 0 N 1017,4 25 60
19.08.2017 16:00:00 27,0 16,3 5 3 O 1017,4 25 60
19.08.2017 15:00:00 30,6 18,9 13 7 NO 1017,1 25 60
19.08.2017 14:00:00 30,4 20,0 4 2 NO 1017,1 25 60
19.08.2017 13:00:00 30,4 20,0 13 7 S 1017,4 20 60
19.08.2017 12:00:00 29,0 23,0 11 6 S 1017,5 20 60
19.08.2017 11:00:00 28,0 24,2 9 5 S 1017,6 20 60
19.08.2017 10:00:00 26,8 24,1 9 5 SSO 1017,3 20 60
19.08.2017 09:00:00 27,0 25,0 9 5 S 1017,3 20 60
19.08.2017 08:00:00 26,0 24,2 15 8 S 1016,7 20 60
19.08.2017 07:00:00 - - - - - - - -
19.08.2017 06:00:00 - - - - - - - -
19.08.2017 05:00:00 - - - - - - - -
19.08.2017 04:00:00 - - - - - - - -
19.08.2017 03:00:00 - - - - - - - -
19.08.2017 02:00:00 - - - - - - - -
19.08.2017 01:00:00 - - - - - - - -
19.08.2017 00:00:00 - - - - - - - -
18.08.2017 23:00:00 - - - - - - - -
18.08.2017 22:00:00 - - - - - - - -
18.08.2017 21:00:00 - - - - - - - -
18.08.2017 20:00:00 28,0 24,2 8 4 NNE 1016,6 20 54
18.08.2017 19:00:00 29,0 21,0 9 5 NNE 1017,1 20 60
18.08.2017 18:00:00 30,0 22,7 5 3 NNE 1017,4 20 60
18.08.2017 17:00:00 30,0 21,9 9 5 N 1017,6 20 60
18.08.2017 16:00:00 31,0 23,7 5 3 NNE 1017,5 20 60
18.08.2017 15:00:00 30,0 24,4 5 3 NNE 1018,4 20 60
18.08.2017 14:00:00 29,6 22,3 5 3 NNE 1018,5 20 60
18.08.2017 13:00:00 29,4 24,5 5 3 NNE 1018,5 20 60
18.08.2017 12:00:00 28,6 24,8 8 4 NNE 1018,4 20 60
18.08.2017 11:00:00 28,4 24,6 11 6 NNE 1018,4 20 60
18.08.2017 10:00:00 28,0 25,0 5 3 NNE 1018,0 20 60
18.08.2017 09:00:00 26,0 23,9 4 2 ENE 1017,8 20 60
18.08.2017 08:00:00 24,0 22,6 4 2 NE 1018,0 20 60
18.08.2017 07:00:00 - - - - - - - -
18.08.2017 06:00:00 - - - - - - - -
18.08.2017 05:00:00 - - - - - - - -
18.08.2017 04:00:00 - - - - - - - -
18.08.2017 03:00:00 - - - - - - - -
18.08.2017 02:00:00 - - - - - - - -
18.08.2017 01:00:00 - - - - - - - -
18.08.2017 00:00:00 - - - - - - - -
17.08.2017 23:00:00 - - - - - - - -
17.08.2017 22:00:00 - - - - - - - -
17.08.2017 21:00:00 - - - - - - - -
17.08.2017 20:00:00 26,6 23,9 15 8 NO 1017,3 20 -
17.08.2017 19:00:00 29,0 24,8 11 6 NNO 1017,9 20 60
17.08.2017 18:00:00 29,0 19,4 9 5 NNO 1017,5 20 60
17.08.2017 17:00:00 30,0 20,8 9 5 NNE 1017,4 20 60
17.08.2017 16:00:00 31,0 22,0 9 5 NNO 1017,7 20 60
17.08.2017 15:00:00 30,6 22,0 5 3 NNO 1017,6 20 60
17.08.2017 14:00:00 30,0 21,1 11 6 N 1017,6 20 60
17.08.2017 13:00:00 30,0 21,4 4 2 N 1017,8 20 60
17.08.2017 12:00:00 29,4 20,8 5 3 NNO 1017,9 20 60
17.08.2017 11:00:00 29,4 17,9 11 6 NO 1017,5 20 60
17.08.2017 10:00:00 29,0 18,2 8 4 NNO 1017,5 20 60
17.08.2017 09:00:00 26,2 23,5 11 6 NNO 1017,8 20 60
17.08.2017 08:00:00 24,2 22,8 9 5 NNO 1017,9 20 60
17.08.2017 07:00:00 - - - - - - - -
17.08.2017 06:00:00 - - - - - - - -
17.08.2017 05:00:00 - - - - - - - -
17.08.2017 04:00:00 - - - - - - - -
17.08.2017 03:00:00 - - - - - - - -
17.08.2017 02:00:00 - - - - - - - -
17.08.2017 01:00:00 - - - - - - - -
17.08.2017 00:00:00 - - - - - - - -
16.08.2017 23:00:00 - - - - - - - -
16.08.2017 22:00:00 - - - - - - - -
16.08.2017 21:00:00 - - - - - - - -
16.08.2017 20:00:00 27,0 23,7 5 3 NNE 1017,7 20 -
16.08.2017 19:00:00 29,0 22,0 4 2 N 1018,5 20 60
16.08.2017 18:00:00 29,8 22,5 4 2 NNE 1018,4 20 60
16.08.2017 17:00:00 31,0 23,7 11 6 N 1018,3 20 60
16.08.2017 16:00:00 30,2 24,4 5 3 NNE 1019,2 20 60
16.08.2017 15:00:00 31,0 26,0 5 3 NNE 1019,4 20 60
16.08.2017 14:00:00 30,4 23,8 9 5 N 1019,4 20 60
16.08.2017 13:00:00 30,2 24,4 4 2 NNE 1019,8 20 60
16.08.2017 12:00:00 30,0 23,9 5 3 NNE 1019,9 20 60
16.08.2017 11:00:00 28,4 22,4 4 2 NNE 1019,6 20 60
16.08.2017 10:00:00 28,0 23,2 4 2 NNE 1019,2 20 60
16.08.2017 09:00:00 25,0 22,9 5 3 NNE 1019,5 20 60
16.08.2017 08:00:00 24,2 22,5 4 2 NE 1019,0 20 60
16.08.2017 07:00:00 - - - - - - - -
16.08.2017 06:00:00 - - - - - - - -
16.08.2017 05:00:00 - - - - - - - -
16.08.2017 04:00:00 - - - - - - - -
16.08.2017 03:00:00 - - - - - - - -
16.08.2017 02:00:00 - - - - - - - -
16.08.2017 01:00:00 - - - - - - - -
16.08.2017 00:00:00 - - - - - - - -
15.08.2017 23:00:00 - - - - - - - -
15.08.2017 22:00:00 - - - - - - - -
15.08.2017 21:00:00 - - - - - - - -
15.08.2017 20:00:00 26,6 25,5 4 2 NO 1019,8 20 24
15.08.2017 19:00:00 29,0 24,5 5 3 NNO 1019,5 20 60
15.08.2017 18:00:00 29,4 24,5 5 3 NNO 1019,5 20 60
15.08.2017 17:00:00 29,0 21,8 9 5 NO 1021,6 20 60
15.08.2017 16:00:00 29,2 22,7 9 5 NNO 1021,6 20 60
15.08.2017 15:00:00 29,8 23,2 4 2 NO 1021,5 20 60
15.08.2017 14:00:00 29,8 23,7 4 2 NO 1021,5 20 60
15.08.2017 13:00:00 30,0 23,9 11 6 NO 1021,1 20 60
15.08.2017 12:00:00 28,6 23,7 4 2 NNO 1021,2 20 60
15.08.2017 11:00:00 28,4 24,6 9 5 NNO 1021,0 20 60
15.08.2017 10:00:00 28,0 24,2 9 5 NO 1020,9 20 60
15.08.2017 09:00:00 26,6 23,7 4 2 NO 1020,4 20 60
15.08.2017 08:00:00 25,4 22,7 4 2 NNO 1019,9 20 60
15.08.2017 07:00:00 - - - - - - - -
15.08.2017 06:00:00 - - - - - - - -
15.08.2017 05:00:00 - - - - - - - -
15.08.2017 04:00:00 - - - - - - - -
15.08.2017 03:00:00 - - - - - - - -
15.08.2017 02:00:00 - - - - - - - -
15.08.2017 01:00:00 - - - - - - - -
15.08.2017 00:00:00 - - - - - - - -
14.08.2017 23:00:00 - - - - - - - -
14.08.2017 22:00:00 - - - - - - - -
14.08.2017 21:00:00 - - - - - - - -
14.08.2017 20:00:00 26,0 22,3 4 2 NO 1019,8 20 -
14.08.2017 19:00:00 29,0 23,0 5 3 NNO 1019,5 20 60
14.08.2017 18:00:00 29,2 23,2 8 4 NO 1019,5 20 60
14.08.2017 17:00:00 30,4 21,8 9 5 NNO 1020,0 20 60
14.08.2017 16:00:00 30,4 23,3 9 5 NNO 1020,4 20 60
14.08.2017 15:00:00 30,0 23,0 9 5 NO 1020,7 20 60
14.08.2017 14:00:00 29,6 23,1 9 5 NNO 1020,5 20 60
14.08.2017 13:00:00 29,6 23,5 4 2 NO 1020,5 20 60
14.08.2017 12:00:00 29,2 22,2 9 5 NNO 1019,9 20 60
14.08.2017 11:00:00 29,0 22,2 9 5 N 1019,5 20 60
14.08.2017 10:00:00 28,0 20,8 4 2 NNO 1019,6 20 60
14.08.2017 09:00:00 27,0 21,5 5 3 N 1018,7 20 60
14.08.2017 08:00:00 26,0 20,8 4 2 N 1018,8 20 60
14.08.2017 07:00:00 - - - - - - - -
14.08.2017 06:00:00 - - - - - - - -
14.08.2017 05:00:00 - - - - - - - -

tt = Temperatura
td = dewpoint
ff = velocità del vento
dd = direzione del vento
ppp = reduced air pressure
vv = visibility
sd = ore di luce

Stazioni seguenti

WeatherPro
AMSI
MeteoEarth